Flag for Norway Weather past 2 weeks in Hamar, Norway

Now
48 °F

Cool.


Feels Like: 48 °F
Forecast: 35 / 55 °F
Wind: 2 mph from North

Location: Haugedalshogda

Current Time: Sep 21, 2014 at 8:14:50 AM

Latest Report: Sep 21, 2014 at 7:00 AM


Visibility: N/A

Pressure: 29.85 "Hg

Humidity: 94%

Dew point: 47 °F

Location of HamarLocation

Historic Weather in Hamar — Graph

°F

Hamar temperature yesterday

Maximum temperature yesterday: 56 °F (at 3:00 PM)
Minimum temperature yesterday: 37 °F (at 12:00 AM)
Average temperature yesterday: 45 °F

Past Weeks' High & Low Weather Summary

 TemperatureHumidityPressure
High70 °F (Sep 6, 5:00 PM)96% (Sep 19, 9:00 AM)30.56 "Hg (Sep 19, 9:00 AM)
Low32 °F (Sep 13, 6:00 AM)38% (Sep 6, 5:00 PM)29.79 "Hg (Sep 9, 7:00 AM)
Average50 °F83%30.21 "Hg
* Reported Sep 6 7:00 AM — Sep 21 7:00 AM, Hamar, Weather by CustomWeather, © 2014

Note: Actual official high and low records may vary slightly from our data, if they occured in-between our weather recording intervals... More about our weather records

Advertising

Hamar weather history for previous 24 hours

 ConditionsComfort  
Time TempWeatherWind HumidityBarometerVisibility
7:00 AM
Sep 21
48 °FCool.2 mph94%29.85 "HgN/A
6:00 AM48 °FCool.No wind94%29.85 "HgN/A
5:00 AM49 °FCool.1 mph94%29.85 "HgN/A
4:00 AM49 °FCool.2 mph94%29.84 "HgN/A
3:00 AM49 °FCool.3 mph94%29.84 "HgN/A
2:00 AM49 °FCool.1 mph94%29.84 "HgN/A
1:00 AM49 °FCool.1 mph94%29.85 "HgN/A
12:00 AM49 °FCool.1 mph94%29.85 "HgN/A
11:00 PM
Sep 20
49 °FCool.1 mph94%29.85 "HgN/A
10:00 PM49 °FCool.1 mph92%29.87 "HgN/A
9:00 PM49 °FCool.1 mph91%29.88 "HgN/A
8:00 PM49 °FCool.2 mph89%29.88 "HgN/A
7:00 PM51 °FCool.1 mph85%29.89 "HgN/A
3:00 PM56 °FCool.5 mph72%29.91 "HgN/A
2:00 PM52 °FCool.3 mph84%29.95 "HgN/A
1:00 PM51 °FCool.2 mph88%29.96 "HgN/A
11:00 AM45 °FCool.1 mph95%30.00 "HgN/A
10:00 AM43 °FQuite cool.1 mph95%30.02 "HgN/A
9:00 AM42 °FQuite cool.No wind94%30.03 "HgN/A
8:00 AM41 °FQuite cool.1 mph94%30.03 "HgN/A
Weather by CustomWeather, © 2014

See weather overviewHow to use our weather pages